When you browse on this site, cookies collect data to enhance your experience and personalize the content and advertising you see.
Visit our Privacy Policy to learn more. By continuing to use the site, you agree to this use of cookies and data.
  • Em Portugal
  • Lista de países
  • Para 7 dias
  • Temperatura da água
  • Mapa do tempo
  • Widgets de tempo
  • user-avatar
    Iniciar Sessão

    Previsão horária em Kigoma

    Hoje, 1 Abril, Quarta-feira

    Tempo Temperatura Precipitação Vento Pressão Humidade
    00:00 +24°C° 0 mm 1 m/s 692 mmHg 86%
    01:00 +24°C° 0 mm 1 m/s 692 mmHg 85%
    02:00 +24°C° 0 mm 1 m/s 692 mmHg 86%
    03:00 +24°C° 0.1 mm 1 m/s 692 mmHg 86%
    04:00 +24°C° 0.1 mm 1 m/s 691 mmHg 86%
    05:00 +24°C° 0.1 mm 1 m/s 691 mmHg 86%
    06:00 +25°C° 0.3 mm 2 m/s 692 mmHg 85%
    07:00 +25°C° 0.3 mm 2 m/s 693 mmHg 84%
    08:00 +26°C° 0 mm 2 m/s 694 mmHg 83%
    09:00 +27°C° 1.1 mm 2 m/s 694 mmHg 80%
    10:00 +28°C° 1.1 mm 2 m/s 693 mmHg 78%
    11:00 +29°C° 1.1 mm 2 m/s 693 mmHg 76%
    12:00 +29°C° 1.3 mm 2 m/s 692 mmHg 76%
    13:00 +29°C° 1.3 mm 1 m/s 692 mmHg 76%
    14:00 +29°C° 1.3 mm 1 m/s 691 mmHg 76%
    15:00 +29°C° 0 mm 1 m/s 691 mmHg 77%
    16:00 +29°C° 0 mm 1 m/s 691 mmHg 78%
    17:00 +28°C° 0 mm 1 m/s 690 mmHg 79%
    18:00 +27°C° 0.8 mm 1 m/s 691 mmHg 81%
    19:00 +26°C° 0.8 mm 1 m/s 691 mmHg 84%
    20:00 +23°C° 0.8 mm 0 m/s 692 mmHg 86%
    21:00 +25°C° 0.1 mm 1 m/s 692 mmHg 87%
    22:00 +24°C° 0.1 mm 1 m/s 692 mmHg 87%
    23:00 +24°C° 0.1 mm 1 m/s 692 mmHg 88%

    Amanhã, 2 Abril, Quinta-feira

    Tempo Temperatura Precipitação Vento Pressão Humidade
    00:00 +24°C° 0 mm 1 m/s 691 mmHg 87%
    01:00 +23°C° 0 mm 1 m/s 691 mmHg 87%
    02:00 +23°C° 0 mm 1 m/s 691 mmHg 87%
    03:00 +23°C° 0.1 mm 1 m/s 691 mmHg 88%
    04:00 +23°C° 0.1 mm 2 m/s 691 mmHg 88%
    05:00 +23°C° 0.1 mm 2 m/s 691 mmHg 89%
    06:00 +24°C° 0 mm 2 m/s 691 mmHg 88%
    07:00 +24°C° 0 mm 2 m/s 692 mmHg 87%
    08:00 +25°C° 0 mm 2 m/s 693 mmHg 86%
    09:00 +25°C° 0 mm 2 m/s 692 mmHg 85%
    10:00 +26°C° 0 mm 2 m/s 692 mmHg 84%
    11:00 +26°C° 0 mm 2 m/s 691 mmHg 82%
    12:00 +27°C° 0.1 mm 1 m/s 691 mmHg 78%
    13:00 +29°C° 0.1 mm 1 m/s 690 mmHg 74%
    14:00 +30°C° 0.1 mm 1 m/s 689 mmHg 70%
    15:00 +29°C° 0.4 mm 1 m/s 689 mmHg 74%
    16:00 +29°C° 0.4 mm 1 m/s 689 mmHg 78%
    17:00 +28°C° 0.4 mm 1 m/s 689 mmHg 82%
    18:00 +27°C° 0.5 mm 2 m/s 690 mmHg 84%
    19:00 +26°C° 0.5 mm 2 m/s 690 mmHg 86%
    20:00 +25°C° 0.5 mm 2 m/s 691 mmHg 87%
    21:00 +25°C° 0.6 mm 2 m/s 691 mmHg 88%
    22:00 +25°C° 0.6 mm 2 m/s 691 mmHg 88%
    23:00 +24°C° 0.6 mm 2 m/s 691 mmHg 89%

    Depois de amanhã, 3 Abril, Sexta-feira

    Tempo Temperatura Precipitação Vento Pressão Humidade
    00:00 +24°C° 0.2 mm 2 m/s 691 mmHg 89%
    01:00 +24°C° 0.2 mm 2 m/s 691 mmHg 89%
    02:00 +24°C° 0.2 mm 1 m/s 691 mmHg 89%
    03:00 +23°C° 1.1 mm 2 m/s 691 mmHg 90%
    04:00 +23°C° 1.1 mm 2 m/s 691 mmHg 91%
    05:00 +23°C° 1.1 mm 2 m/s 691 mmHg 92%
    06:00 +24°C° 1 mm 2 m/s 691 mmHg 90%
    07:00 +24°C° 1 mm 2 m/s 692 mmHg 89%
    08:00 +25°C° 1 mm 2 m/s 693 mmHg 87%
    09:00 +26°C° 0.9 mm 2 m/s 693 mmHg 84%
    10:00 +27°C° 0.9 mm 2 m/s 692 mmHg 80%
    11:00 +28°C° 0.9 mm 1 m/s 692 mmHg 77%
    12:00 +28°C° 0.9 mm 2 m/s 692 mmHg 77%
    13:00 +29°C° 0.9 mm 2 m/s 691 mmHg 77%
    14:00 +29°C° 0.9 mm 3 m/s 691 mmHg 76%
    15:00 +28°C° 0.3 mm 3 m/s 691 mmHg 78%
    16:00 +27°C° 0.3 mm 4 m/s 691 mmHg 81%
    17:00 +27°C° 0.3 mm 4 m/s 691 mmHg 83%
    18:00 +26°C° 0.6 mm 4 m/s 691 mmHg 83%
    19:00 +26°C° 0.6 mm 4 m/s 692 mmHg 83%
    20:00 +25°C° 0.6 mm 3 m/s 692 mmHg 83%
    21:00 +25°C° 0.8 mm 3 m/s 692 mmHg 85%
    22:00 +25°C° 0.8 mm 3 m/s 692 mmHg 86%
    23:00 +24°C° 0.8 mm 3 m/s 693 mmHg 87%

    4 Abril, Sábado

    Tempo Temperatura Precipitação Vento Pressão Humidade
    00:00 +24°C° 0 mm 3 m/s 692 mmHg 88%
    01:00 +22°C° 0 mm 3 m/s 692 mmHg 89%
    02:00 +23°C° 0 mm 2 m/s 691 mmHg 90%
    03:00 +23°C° 0 mm 2 m/s 691 mmHg 89%
    04:00 +21°C° 0 mm 2 m/s 691 mmHg 89%
    05:00 +21°C° 0 mm 2 m/s 691 mmHg 88%
    06:00 +23°C° 0 mm 2 m/s 692 mmHg 87%
    07:00 +24°C° 0 mm 2 m/s 693 mmHg 86%
    08:00 +25°C° 0 mm 2 m/s 693 mmHg 85%
    09:00 +26°C° 0 mm 2 m/s 693 mmHg 81%
    10:00 +27°C° 0 mm 2 m/s 693 mmHg 76%
    11:00 +29°C° 0 mm 2 m/s 693 mmHg 72%
    12:00 +29°C° 0 mm 2 m/s 692 mmHg 70%
    13:00 +29°C° 0 mm 3 m/s 692 mmHg 69%
    14:00 +30°C° 0 mm 3 m/s 691 mmHg 67%
    15:00 +29°C° 0.1 mm 2 m/s 691 mmHg 72%
    16:00 +28°C° 0.1 mm 2 m/s 691 mmHg 77%
    17:00 +28°C° 0.1 mm 2 m/s 691 mmHg 81%
    18:00 +27°C° 0.7 mm 2 m/s 691 mmHg 84%
    19:00 +26°C° 0.7 mm 2 m/s 691 mmHg 88%
    20:00 +24°C° 0.7 mm 1 m/s 692 mmHg 91%
    21:00 +24°C° 0.8 mm 2 m/s 692 mmHg 91%
    22:00 +24°C° 0.8 mm 2 m/s 692 mmHg 91%
    23:00 +24°C° 0.8 mm 2 m/s 692 mmHg 92%

    5 Abril, Domingo

    Tempo Temperatura Precipitação Vento Pressão Humidade
    00:00 +24°C° 0.8 mm 2 m/s 692 mmHg 91%
    01:00 +24°C° 0.8 mm 2 m/s 692 mmHg 90%
    02:00 +24°C° 0.8 mm 3 m/s 692 mmHg 89%
    03:00 +24°C° 1.2 mm 2 m/s 692 mmHg 88%
    04:00 +24°C° 1.2 mm 2 m/s 692 mmHg 87%
    05:00 +24°C° 1.2 mm 2 m/s 692 mmHg 86%
    06:00 +24°C° 0.2 mm 2 m/s 693 mmHg 85%
    07:00 +25°C° 0.2 mm 2 m/s 693 mmHg 84%
    08:00 +25°C° 0.2 mm 2 m/s 694 mmHg 83%
    09:00 +27°C° 0.2 mm 2 m/s 694 mmHg 78%
    10:00 +28°C° 0.2 mm 2 m/s 693 mmHg 73%
    11:00 +29°C° 0.2 mm 1 m/s 693 mmHg 69%
    12:00 +30°C° 0.1 mm 1 m/s 692 mmHg 66%
    13:00 +30°C° 0.1 mm 1 m/s 692 mmHg 63%
    14:00 +31°C° 0.1 mm 1 m/s 691 mmHg 61%
    15:00 +30°C° 0 mm 1 m/s 691 mmHg 66%
    16:00 +30°C° 0 mm 1 m/s 691 mmHg 71%
    17:00 +29°C° 0 mm 2 m/s 690 mmHg 76%
    18:00 +28°C° 0.1 mm 1 m/s 691 mmHg 79%
    19:00 +26°C° 0.1 mm 1 m/s 691 mmHg 83%
    20:00 +25°C° 0.1 mm 1 m/s 691 mmHg 86%
    21:00 +24°C° 0 mm 1 m/s 692 mmHg 87%
    22:00 +24°C° 0 mm 1 m/s 692 mmHg 88%
    23:00 +24°C° 0 mm 2 m/s 692 mmHg 89%

    6 Abril, Segunda-feira

    Tempo Temperatura Precipitação Vento Pressão Humidade
    00:00 +24°C° 0 mm 1 m/s 692 mmHg 87%
    01:00 +24°C° 0 mm 1 m/s 692 mmHg 86%
    02:00 +24°C° 0 mm 1 m/s 692 mmHg 84%
    03:00 +24°C° 0.1 mm 1 m/s 692 mmHg 85%
    04:00 +24°C° 0.1 mm 1 m/s 692 mmHg 86%
    05:00 +24°C° 0.1 mm 1 m/s 692 mmHg 87%
    06:00 +25°C° 0.1 mm 1 m/s 692 mmHg 85%
    07:00 +25°C° 0.1 mm 1 m/s 693 mmHg 84%
    08:00 +26°C° 0.1 mm 1 m/s 693 mmHg 83%
    09:00 +27°C° 0.2 mm 1 m/s 693 mmHg 79%
    10:00 +28°C° 0.2 mm 1 m/s 693 mmHg 76%
    11:00 +29°C° 0.2 mm 1 m/s 693 mmHg 73%
    12:00 +30°C° 0.3 mm 1 m/s 692 mmHg 72%
    13:00 +30°C° 0.3 mm 1 m/s 691 mmHg 72%
    14:00 +30°C° 0.3 mm 1 m/s 690 mmHg 71%
    15:00 +30°C° 0.2 mm 1 m/s 690 mmHg 74%
    16:00 +29°C° 0.2 mm 1 m/s 690 mmHg 77%
    17:00 +28°C° 0.2 mm 1 m/s 690 mmHg 81%
    18:00 +27°C° 0.2 mm 1 m/s 690 mmHg 82%
    19:00 +26°C° 0.2 mm 1 m/s 691 mmHg 84%
    20:00 +25°C° 0.2 mm 1 m/s 691 mmHg 86%
    21:00 +25°C° 0.1 mm 1 m/s 691 mmHg 87%
    22:00 +25°C° 0.1 mm 1 m/s 692 mmHg 88%
    23:00 +24°C° 0.1 mm 1 m/s 692 mmHg 89%
    Mostrar mais